www.pogodaiklimat.ru
ПОГОДА в Принцессы Юлианы аэропорту
Время
(UTC), дата
15 23.05
18 23.05
21 23.05
00 24.05
03 24.05
06 24.05
09 24.05
12 24.05
15 24.05
18 24.05
21 24.05
00 25.05
03 25.05
06 25.05
09 25.05
12 25.05
15 25.05
18 25.05
21 25.05
00 26.05
03 26.05
06 26.05
09 26.05
12 26.05
15 26.05
18 26.05
21 26.05
00 27.05
03 27.05
06 27.05
09 27.05
12 27.05
15 27.05
18 27.05
21 27.05
00 28.05
03 28.05
06 28.05
09 28.05
12 28.05
15 28.05
18 28.05
21 28.05
00 29.05
03 29.05
06 29.05
09 29.05
12 29.05
15 29.05
18 29.05
21 29.05
00 30.05
06 30.05
09 30.05
Ветер
(напр.,м/с)
Видим. Явления Облачность Т
(С)
Тd
(С)
f
(%)
Тe
(С)
Тes
(С)
Комфортность P
(гПа)
Po
(гПа)
Тmin
(С)
Tmax
(С)
R
(мм)
R24
(мм)
S
(см)
ЮВ 5 25 км 1/1 600 м
[Cu Sc]
+30.4 +24.2 70 +42 +52 опасность
перегрева
1019.0 1018.5
ЮВ 5 20 км 3/1 540 м
[Cu Sc Ac trans Ci sp]
+30.8 +24.1 68 +43 +51 опасность
перегрева
1017.3 1016.8
ЮВ 3 18 км 3/1 <50 м
[Cu hum Ci sp]
+30.4 +24.1 69 +42 +45 опасность
перегрева
1016.5 1016.0
В 3 15 км 6/3 540 м
[Cu hum Ci sp]
+27.9 +23.4 77 +38 +38 очень
душно
1017.4 1016.9 +27.1 +31.7
В 3 15 км 6/3 540 м
[Cu med, cong Ci sp]
+27.7 +23.7 79 +38 +38 очень
душно
1017.7 1017.2
В 2 25 км 1/1 540 м
[Cu med, cong Ci fib]
+27.2 +23.6 81 +37 +37 очень
душно
1016.1 1015.6
В 2 25 км 4/3 540 м
[Cu med, cong Ci fib]
+27.2 +23.8 82 +37 +37 очень
душно
1016.2 1015.7
ЮВ 3 18 км {ливн. осадки} 8/3 480 м
[Sc diur, vesp Ci fib]
+29.6 +23.6 70 +40 +43 очень
душно
1017.5 1017.0 +26.7 +31.7 0.0 0.0
В 4 15 км осадки на расстоянии 4/4
[Sc diur, vesp Ci fib]
+31.0 +24.2 67 +43 +51 опасность
перегрева
1018.0 1017.5
ЮВ 5 50 км 6/6 480 м
[Cu Sc Ci fib]
+31.2 +23.8 65 +43 +47 опасность
перегрева
1016.3 1015.8
ЮВ 5 50 км 5/3 540 м
[Cu Sc Ac trans Ci fib]
+30.3 +23.1 65 +40 +42 очень
душно
1015.8 1015.3
В 3 50 км 6/1 540 м
[Cu Sc Ac trans Ci fib]
+28.2 +23.5 76 +38 +38 очень
душно
1016.9 1016.4 +26.7 +31.9 0.0
В 3 20 км {ливн. осадки} 4/3 480 м
[Cu Sc Ac trans]
+27.6 +23.6 79 +38 +38 очень
душно
1017.5 1017.0
В 3 10 км слаб. ливневой дождь 6/4 480 м
[Sc diur, vesp Ci fib]
+27.4 +23.3 78 +37 +37 очень
душно
1015.9 1015.4 0.0
В 4 20 км 3/3 480 м
[Sc diur, vesp]
+27.5 +22.8 76 +37 +37 очень
душно
1015.6 1015.1
В 6 >70 км слаб. ливневой дождь 6/6 540 м
[Cu Sc Ci fib]
+29.2 +22.8 68 +39 +40 очень
душно
1016.9 1016.4 +27.1 +31.9
ЮВ 4 >70 км {ливн. осадки} 3/3 540 м
[Cu med, cong Ci fib]
+31.0 +23.4 64 +42 +51 опасность
перегрева
1017.7 1017.2
ЮВ 5 >70 км 8/1 540 м
[Cu Sc Ci fib]
+31.1 +23.5 64 +42 +50 опасность
перегрева
1016.3 1015.8
В 5 60 км 9/1 600 м
[Cu Sc Ci fib]
+30.6 +23.3 65 +41 +43 опасность
перегрева
1015.6 1015.1
В 4 50 км 9/1 540 м
[Cu med, cong Ci fib]
+28.0 +23.5 77 +38 +38 очень
душно
1016.5 1016.0 +27.1 +31.5 0.0
В 5 50 км 9/1 540 м
[Cu med, cong Ci fib]
+27.9 +23.4 77 +38 +38 очень
душно
1017.5 1017.0
В 4 30 км {ливн. осадки} 8/1 600 м
[Cu med, cong Ci fib]
+27.3 +22.8 76 +36 +36 очень
душно
1016.6 1016.1 1
В 5 30 км 9/4 540 м
[Cu Sc Ci fib]
+27.3 +23.3 79 +37 +37 очень
душно
1016.0 1015.5
В 5 60 км 3/3 540 м
[Cu med, cong Ac trans Ci fib]
+29.7 +23.5 69 +40 +42 очень
душно
1016.9 1016.4 +26.8 +31.5 0.1
В 5 60 км осадки на расстоянии {ливн. осадки} 4/4 540 м
[Cu med, cong Ci fib]
+30.5 +23.5 66 +41 +47 опасность
перегрева
1017.1 1016.6
ЮВ 4 >70 км {ливн. осадки} 3/3 540 м
[Cu Sc Ci fib]
+31.2 +23.7 64 +42 +51 опасность
перегрева
1016.2 1015.7
В 4 >70 км 8/5 540 м
[Cu Sc Ci fib]
+30.0 +22.6 65 +40 +41 очень
душно
1015.4 1014.9
В 4 60 км 3/1 540 м
[Cu hum Ci fib]
+28.0 +24.0 79 +39 +39 очень
душно
1016.6 1016.1 +26.8 +31.5 0.1
В 4 50 км 3/3 540 м
[Cu Sc Ci fib]
+27.8 +23.7 78 +38 +38 очень
душно
1017.2 1016.7
В 3 50 км 1/1 480 м
[Cu Sc]
+27.5 +23.7 80 +38 +38 очень
душно
1016.0 1015.5
В 4 50 км 1/1 540 м
[Cu med, cong Ci fib]
+27.4 +23.7 80 +37 +37 очень
душно
1014.9 1014.4
В 5 50 км 5/4 540 м
[Cu med, cong Ci fib]
+29.4 +24.1 73 +41 +43 опасность
перегрева
1016.1 1015.6 +27.2 +31.5
ЮВ 5 50 км 6/4 540 м
[Cu Sc Ci fib]
+30.0 +24.3 72 +42 +49 опасность
перегрева
1017.2 1016.7
ЮВ 4 50 км 9/4
[Cb cap Ci sp]
+31.8 +24.7 66 +45 +51 опасность
перегрева
1016.0 1015.5
ЮВ 3 45 км 9/3
[Cb cap Ac trans Ci sp]
+30.0 +24.4 72 +42 +43 опасность
перегрева
1015.7 1015.2
ЮВ 2 45 км зарница 9/1
[Cb cap Ci sp]
+28.2 +24.6 81 +40 +40 очень
душно
1016.4 1015.9 +27.2 +32.4
С 4 60 км зарница 6/3
[Cb cap Ci sp]
+27.3 +23.0 77 +36 +36 очень
душно
1016.9 1016.4
СВ 2 50 км зарница {гроза} 8/3
[Cu Sc Ci ing]
+27.4 +24.2 83 +38 +38 очень
душно
1015.8 1015.3
В 3 50 км гроза без осадков 6/5
[Cb cap Ci ing]
+26.3 +23.0 82 +35 +35 очень
душно
1016.0 1015.5
В 4 40 км 9/3 540 м
[Cu Sc Ci sp]
+28.6 +23.0 72 +38 +41 очень
душно
1017.3 1016.8 +25.9 +32.4
ЮВ 4 40 км 9/1 600 м
[Cu hum Ci sp]
+31.2 +22.5 60 +41 +50 опасность
перегрева
1017.5 1017.0
ЮВ 3 15 км 9/1 600 м
[Cu hum Cs]
+30.5 +24.4 70 +43 +54 опасность
перегрева
1016.3 1015.8
ЮВ 2 15 км 9/1 540 м
[Cu Sc Cs]
+30.0 +23.9 70 +41 +44 опасность
перегрева
1016.3 1015.8
СВ 3 15 км зарница 4/3
[Cb cap Ci sp]
+28.3 +24.2 78 +39 +39 очень
душно
1017.5 1017.0 +25.9 +31.9
В 3 15 км 1/1 600 м
[Cu hum]
+27.6 +23.1 77 +37 +37 очень
душно
1017.3 1016.8
В 4 15 км 5/3 540 м
[Cu med, cong Ci fib]
+27.6 +23.3 77 +37 +37 очень
душно
1016.1 1015.6
В 4 15 км 6/1 540 м
[Cu hum Ci sp]
+27.4 +23.3 78 +37 +37 очень
душно
1016.3 1015.8
В 5 15 км 9/1 540 м
[Cu Sc Cs]
+29.1 +23.7 73 +40 +42 очень
душно
1017.7 1017.2 +27.3 +31.9
ЮВ 4 15 км 4/1 540 м
[Cu hum Ac trans Ci sp]
+31.4 +23.6 63 +42 +52 опасность
перегрева
1018.0 1017.5
ЮВ 5 20 км 6/4 480 м
[Cb calv Ac und Cs]
+30.8 +24.2 68 +43 +49 опасность
перегрева
1017.7 1017.2
ЮВ 4 20 км 3/1 540 м
[Cu Sc As trans Cs]
+30.5 +23.2 65 +41 +43 опасность
перегрева
1017.1 1016.6
В 4 15 км 3/1 600 м
[Cu Sc As op]
+28.2 +23.3 75 +38 +38 очень
душно
1018.2 1017.7 +27.3 +31.9
В 2 15 км 1/1 540 м
[Cu hum]
+27.5 +23.6 79 +37 +37 очень
душно
1016.6 1016.1
В 3 15 км 8/3 480 м
[Cu med, cong Cs]
+27.4 +23.3 78 +37 +37 очень
душно
1017.0 1016.5
Местоположение метеостанции Принцессы Юлианы аэропорт (Синт-Мартен): широта 18.03 долгота -63.11 высота над уровнем моря 4 м.
В архиве по умолчанию представлена погода в Принцессы Юлианы аэропорту за последнюю неделю. Архивные данные за месяц целиком и за предыдущие месяцы, начиная с января 2011 года, Вы можете получить, выбрав интересующий диапазон дат из раскрывающегося списка и нажав кнопку "Найти!".
*Определитесь, кто Вы:
Внимание! Время в таблицах - всемирное. Для получения местного времени необходимо прибавить поправку, которая равна -4 ч.
Смотрите также архив погоды в соседних городах и на ближайших метеорологических станциях:
Партнеры нашего сайта:      
Пояснения к столбцам:
  • Ветер - указаны скорость ветра в м/с - средняя за 10 мин, порывы в срок и между сроками (в фигурных скобках) и направление, откуда дует ветер: С - северный,
  • СВ - северо-восточный, В - восточный, ЮВ - юго-восточный, Ю - южный, ЮЗ - юго-западный, З - западный, СЗ - северо-западный.
  • Видимость - горизонтальная дальность видимости в метрах или километрах. При видимости от 1 до 10 км при отсутствии осадков обычно наблюдается дымка, при ухудшении видимости до 1 км и менее - туман. В сухую погоду видимость может ухудшаться дымом, пылью или мглою.
  • Явления - указаны атмосферные явления, наблюдавшиеся в срок или в последний час перед сроком; фигурными скобками обозначены явления, наблюдавшиеся между сроками (за 1-3 часа до срока); квадратными скобками обозначены град или гололедные отложения с указанием их диаметра в мм.
  • Облачность - указаны через наклонную черту общая и нижняя облачность в баллах и высота нижней границы облаков в метрах; квадратными скобками обозначены формы облаков: Ci - перистые, Cs - перисто-слоистые, Cc - перисто-кучевые, Ac - высококучевые, As - высокослоистые, Sc - слоисто-кучевые, Ns - слоисто-дождевые, Cu - кучевые, Cb - кучево-дождевые. Подробнее классификацию облаков см. в Атласе облаков (PDF).
  • T - Температура воздуха - температура, измеренная на высоте 2 м над землей.
  • Td - Температура точки росы - температура, при понижении до которой содержащийся в воздухе водяной пар достигнет насыщения.
  • f - Относительная влажность воздуха - влажноcть воздуха, измеренная на высоте 2 м над землей.
  • Te - Эффективная температура - температура, которую ощущает одетый по сезону человек в тени. Характеристика душности погоды. При расчете учитывается влияние влажности воздуха и скорости ветра на теплоощущения человека.
  • Tes - Эффективная температура на солнце - температура, которую ощущает человек, с поправкой на солнечный нагрев. Характеристика знойности погоды. Зависит от высоты солнца над горизонтом, облачности и скорости ветра. Ночью, в пасмурную погоду, а также при ветре 12 м/с и более поправка равна нулю.
  • P - Атмосферное давление - приведенное к уровню моря атмосферное давление.
  • Po - Атмосферное давление - измеренное на уровне метеостанции атмосферное давление.
  • Tmin - Минимальная температура - минимум температуры воздуха на высоте 2 м над землей.
  • Tmax - Максимальная температура - максимум температуры воздуха на высоте 2 м над землей.
  • R - Количество осадков - Количество выпавших осадков за период времени, мм. При наведении курсора мыши на число - период времени, за который выпало указанное количество осадков.
  • R24 - Количество осадков - Количество выпавших осадков за 24 часа, мм.
  • S - Снежный покров - Высота снежного покрова, см. При наведении курсора мыши на число - состояние снежного покрова и степень покрытия местности в баллах.